IRIDIUM 33 DEB, 35480

Orbit data source: Space-Track

IRIDIUM 33 DEB, 35480 is space debris in LEO originally from a launch on Sun, 14 Sep 1997 UTC launched from the Tyuratam Missile And Space Complex (TTMTR). The debris from Iridium 33, an American commercial communications satellite, has been tracked extensively since its accidental collision with the defunct Russian satellite Cosmos 2251 in 2009. This event, occurring at high speed in low Earth orbit (LEO), generated thousands of pieces of space debris, significantly increasing the risk of further collisions. The Iridium 33 debris cloud has impacted space traffic management and orbital debris mitigation strategies, making it a subject of ongoing study in space situational awareness.

Loading next visibility...
Identifier
35480, 1997-051QA
Orbit
LEO
Country
Flag of USUS
Related business
Manufacturer
Unknown
Mission
Spacecraft
Bus & Motor
Unknown
Mass
Unknown
Launch date (UTC)
1997-09-14 (28 years ago)
Launch vehicle
Unknown
Launch site
Tyuratam Missile And Space Complex (TTMTR)
Object type
Payload
Rocket body
Debris
Shape & HBR
Unknown shape, 0.1 m
Radar Cross Section
Small (<0.1 m²)

Expand to show TLE details & history
Last TLE update: 5 days ago

TLE from 5 days ago
0 IRIDIUM 33 DEB
1 35480U 97051QA  25343.83313814  .00003565  00000-0  91935-3 0  9999
2 35480  86.3570  26.1722 0015927 113.2937 246.9945 14.49744632869894
Epoch: 2025-12-09T19:59Z
TLE epoch observation values (Epoch: 2025-12-09T19:59:43.135Z)
Latitude
-0.00008°
Longitude
7.43032°
Altitude
733.994 km
Speed
7.486 km/s
True Right ascension
01h 44m 41s
True Declination
0° 00' 00"
Sunlit
Object was in full shadow at epoch
Visualization orbit readout
Latitude
Unknown
Longitude
Unknown
Altitude
Unknown
Speed
Unknown
Apparent Right ascension
Unknown
Apparent Declination
Unknown
Sunlit
N/A
Visualization observer readout
Local Sidereal Time
04:15:08
Azimuth
Unknown
Elevation
Unknown
Doppler factor
Unknown
Orbital elements
Apogee altitude
734.737 km
Perigee altitude
712.115 km
Semi-major axis
7,101.563 km
Eccentricity
0.00159
Inclination
86.357°
RAAN
26.1722°
Arg. of periapsis
113.2937°
True anomaly
246.82664°
Mean anomaly
246.9945°
Eccentric anomaly
246.91056°
Mean motion
3.62671 °/min
Orbital period
99.26 mins
BSTAR
0.00091935
Loading maneuver chart data...
Computing Atmospheric mass density...

Documentation

Showing up to 5 results
|